Time,TemperatureF,DewpointF,PressureIn,WindDirection,WindDirectionDegrees,WindSpeedMPH,WindSpeedGustMPH,Humidity,HourlyPrecipIn,Conditions,Clouds,dailyrainin,SoftwareType,DateUTC
2013-05-22 00:03:00,58.5,57.1,29.82,West,270,0.0,0.0,95,0.00,,---,0.00,VWS V14.00,2013-05-22 05:03:00,
2013-05-22 00:08:00,58.5,57.1,29.82,West,270,0.0,0.0,95,0.00,,---,0.00,VWS V14.00,2013-05-22 05:08:00,
2013-05-22 00:13:00,58.4,57.0,29.82,West,270,0.0,0.0,95,0.00,,---,0.00,VWS V14.00,2013-05-22 05:13:00,
2013-05-22 00:18:00,58.3,56.9,29.82,West,270,0.0,0.0,95,0.00,,---,0.00,VWS V14.00,2013-05-22 05:18:00,
2013-05-22 00:23:00,58.1,56.7,29.82,West,270,0.0,0.0,95,0.00,,---,0.00,VWS V14.00,2013-05-22 05:23:00,
2013-05-22 00:28:00,58.0,56.6,29.82,West,270,0.0,0.0,95,0.00,,---,0.00,VWS V14.00,2013-05-22 05:28:00,
2013-05-22 00:34:00,57.9,56.8,29.82,West,270,0.0,0.0,96,0.00,,---,0.00,VWS V14.00,2013-05-22 05:34:00,
2013-05-22 00:39:00,57.8,56.7,29.82,West,270,0.0,0.0,96,0.00,,---,0.00,VWS V14.00,2013-05-22 05:39:00,
2013-05-22 00:44:00,57.7,56.6,29.82,West,270,0.0,0.0,96,0.00,,---,0.00,VWS V14.00,2013-05-22 05:44:00,
2013-05-22 00:49:00,57.6,56.5,29.82,West,270,0.0,0.0,96,0.00,,---,0.00,VWS V14.00,2013-05-22 05:49:00,
2013-05-22 00:54:00,57.5,56.4,29.82,West,270,0.0,0.0,96,0.00,,---,0.00,VWS V14.00,2013-05-22 05:54:00,
2013-05-22 01:00:00,57.4,56.3,29.82,West,270,0.0,0.0,96,0.00,,---,0.00,VWS V14.00,2013-05-22 06:00:00,
2013-05-22 01:05:00,57.3,56.2,29.82,West,270,0.0,0.0,96,0.00,,---,0.00,VWS V14.00,2013-05-22 06:05:00,
2013-05-22 01:11:00,57.3,56.2,29.82,West,270,0.0,0.0,96,0.00,,---,0.00,VWS V14.00,2013-05-22 06:11:00,
2013-05-22 01:16:00,57.3,56.2,29.82,West,270,0.0,0.0,96,0.00,,---,0.00,VWS V14.00,2013-05-22 06:16:00,
2013-05-22 01:21:00,57.3,56.2,29.82,West,270,0.0,0.0,96,0.00,,---,0.00,VWS V14.00,2013-05-22 06:21:00,
2013-05-22 01:27:00,57.3,56.2,29.82,West,270,0.0,0.0,96,0.00,,---,0.00,VWS V14.00,2013-05-22 06:27:00,
2013-05-22 01:32:00,57.3,56.2,29.82,West,270,0.0,0.0,96,0.00,,---,0.00,VWS V14.00,2013-05-22 06:32:00,
2013-05-22 01:38:00,57.2,56.1,29.82,West,270,0.0,0.0,96,0.00,,---,0.00,VWS V14.00,2013-05-22 06:38:00,
2013-05-22 01:43:00,57.3,56.2,29.81,West,270,0.0,0.0,96,0.00,,---,0.00,VWS V14.00,2013-05-22 06:43:00,
2013-05-22 01:49:00,57.3,56.2,29.81,West,270,0.0,0.0,96,0.00,,---,0.00,VWS V14.00,2013-05-22 06:49:00,
2013-05-22 01:54:00,57.2,56.1,29.81,West,270,0.0,0.0,96,0.00,,---,0.00,VWS V14.00,2013-05-22 06:54:00,
2013-05-22 01:59:00,57.2,56.1,29.80,West,270,0.0,0.0,96,0.00,,---,0.00,VWS V14.00,2013-05-22 06:59:00,
2013-05-22 02:04:00,57.2,56.1,29.80,West,270,0.0,0.0,96,0.00,,---,0.00,VWS V14.00,2013-05-22 07:04:00,
2013-05-22 02:10:00,57.2,56.1,29.80,West,270,0.0,0.0,96,0.00,,---,0.00,VWS V14.00,2013-05-22 07:10:00,
2013-05-22 02:15:00,57.1,56.0,29.81,West,270,0.0,0.0,96,0.00,,---,0.00,VWS V14.00,2013-05-22 07:15:00,
2013-05-22 02:20:00,57.2,56.1,29.81,West,270,0.0,0.0,96,0.00,,---,0.00,VWS V14.00,2013-05-22 07:20:00,
2013-05-22 02:25:00,57.2,56.1,29.81,West,270,0.0,0.0,96,0.00,,---,0.00,VWS V14.00,2013-05-22 07:25:00,
2013-05-22 02:31:00,57.0,55.6,29.81,West,270,0.0,0.0,95,0.00,,---,0.00,VWS V14.00,2013-05-22 07:31:00,
2013-05-22 02:36:00,56.9,55.5,29.81,West,270,0.0,0.0,95,0.00,,---,0.00,VWS V14.00,2013-05-22 07:36:00,
2013-05-22 02:42:00,56.9,55.8,29.81,West,270,0.0,0.0,96,0.00,,---,0.00,VWS V14.00,2013-05-22 07:42:00,
2013-05-22 02:48:00,56.8,55.7,29.81,West,270,0.0,0.0,96,0.00,,---,0.00,VWS V14.00,2013-05-22 07:48:00,
2013-05-22 02:53:00,56.7,55.6,29.81,West,270,0.0,0.0,96,0.00,,---,0.00,VWS V14.00,2013-05-22 07:53:00,
2013-05-22 02:59:00,56.7,55.6,29.81,West,270,0.0,0.0,96,0.00,,---,0.00,VWS V14.00,2013-05-22 07:59:00,
2013-05-22 03:05:00,56.7,55.6,29.81,West,270,0.0,0.0,96,0.00,,---,0.00,VWS V14.00,2013-05-22 08:05:00,
2013-05-22 03:11:00,56.6,55.5,29.81,West,270,0.0,0.0,96,0.00,,---,0.00,VWS V14.00,2013-05-22 08:11:00,
2013-05-22 03:17:00,56.6,55.5,29.81,West,270,0.0,0.0,96,0.00,,---,0.00,VWS V14.00,2013-05-22 08:17:00,
2013-05-22 03:22:00,56.6,55.5,29.81,West,270,0.0,0.0,96,0.00,,---,0.00,VWS V14.00,2013-05-22 08:22:00,
2013-05-22 03:27:00,56.6,55.5,29.81,West,270,0.0,0.0,96,0.00,,---,0.00,VWS V14.00,2013-05-22 08:27:00,
2013-05-22 03:33:00,56.5,55.4,29.81,West,270,0.0,0.0,96,0.00,,---,0.00,VWS V14.00,2013-05-22 08:33:00,
2013-05-22 03:39:00,56.7,55.6,29.81,West,270,0.0,0.0,96,0.00,,---,0.00,VWS V14.00,2013-05-22 08:39:00,
2013-05-22 03:44:00,56.7,55.6,29.81,West,270,0.0,0.0,96,0.00,,---,0.00,VWS V14.00,2013-05-22 08:44:00,
2013-05-22 03:49:00,56.4,55.0,29.81,West,270,0.0,0.0,95,0.00,,---,0.00,VWS V14.00,2013-05-22 08:49:00,
2013-05-22 03:55:00,56.1,55.0,29.81,West,270,0.0,0.0,96,0.00,,---,0.00,VWS V14.00,2013-05-22 08:55:00,
2013-05-22 04:00:00,55.8,54.7,29.81,West,270,0.0,0.0,96,0.00,,---,0.00,VWS V14.00,2013-05-22 09:00:00,
2013-05-22 04:05:00,55.6,54.5,29.81,West,270,0.0,0.0,96,0.00,,---,0.00,VWS V14.00,2013-05-22 09:05:00,
2013-05-22 04:11:00,55.5,54.4,29.81,West,270,0.0,0.0,96,0.00,,---,0.00,VWS V14.00,2013-05-22 09:11:00,
2013-05-22 04:16:00,55.4,54.3,29.81,West,270,0.0,0.0,96,0.00,,---,0.00,VWS V14.00,2013-05-22 09:16:00,
2013-05-22 04:22:00,55.4,54.3,29.81,West,270,0.0,0.0,96,0.00,,---,0.00,VWS V14.00,2013-05-22 09:22:00,
2013-05-22 04:27:00,55.3,54.2,29.81,West,270,0.0,0.0,96,0.00,,---,0.00,VWS V14.00,2013-05-22 09:27:00,
2013-05-22 04:32:00,55.3,54.2,29.81,West,270,0.0,0.0,96,0.00,,---,0.00,VWS V14.00,2013-05-22 09:32:00,
2013-05-22 04:37:00,55.3,54.2,29.81,West,270,0.0,0.0,96,0.00,,---,0.00,VWS V14.00,2013-05-22 09:37:00,
2013-05-22 04:42:00,55.2,54.1,29.82,West,270,0.0,0.0,96,0.00,,---,0.00,VWS V14.00,2013-05-22 09:42:00,
2013-05-22 04:48:00,55.2,54.1,29.82,West,270,0.0,0.0,96,0.00,,---,0.00,VWS V14.00,2013-05-22 09:48:00,
2013-05-22 04:53:00,55.1,54.3,29.82,West,270,0.0,0.0,97,0.00,,---,0.00,VWS V14.00,2013-05-22 09:53:00,
2013-05-22 04:58:00,55.1,54.3,29.82,WSW,250,0.0,0.0,97,0.00,,---,0.00,VWS V14.00,2013-05-22 09:58:00,
2013-05-22 05:03:00,55.1,54.3,29.82,WSW,250,0.0,0.0,97,0.00,,---,0.00,VWS V14.00,2013-05-22 10:03:00,
2013-05-22 05:08:00,55.1,54.3,29.82,WSW,250,0.0,0.0,97,0.00,,---,0.00,VWS V14.00,2013-05-22 10:08:00,
2013-05-22 05:13:00,55.1,54.3,29.82,WSW,249,0.0,0.0,97,0.00,,---,0.00,VWS V14.00,2013-05-22 10:13:00,
2013-05-22 05:18:00,55.2,54.4,29.82,SSW,207,0.0,0.0,97,0.00,,---,0.00,VWS V14.00,2013-05-22 10:18:00,
2013-05-22 05:24:00,55.3,54.5,29.82,South,187,0.0,0.0,97,0.00,,---,0.00,VWS V14.00,2013-05-22 10:24:00,
2013-05-22 05:29:00,55.4,54.6,29.82,South,187,0.0,0.0,97,0.00,,---,0.00,VWS V14.00,2013-05-22 10:29:00,
2013-05-22 05:34:00,55.4,54.6,29.82,South,187,0.0,0.0,97,0.00,,---,0.00,VWS V14.00,2013-05-22 10:34:00,
2013-05-22 05:39:00,55.4,54.6,29.82,South,187,0.0,0.0,97,0.00,,---,0.00,VWS V14.00,2013-05-22 10:39:00,
2013-05-22 05:44:00,55.5,54.7,29.82,WSW,245,0.0,0.0,97,0.00,,---,0.00,VWS V14.00,2013-05-22 10:44:00,
2013-05-22 05:49:00,55.4,54.6,29.82,WSW,245,0.0,0.0,97,0.00,,---,0.00,VWS V14.00,2013-05-22 10:49:00,
2013-05-22 05:55:00,55.4,54.6,29.82,WSW,245,0.0,0.0,97,0.00,,---,0.00,VWS V14.00,2013-05-22 10:55:00,
2013-05-22 06:00:00,55.4,54.6,29.82,WSW,245,0.0,0.0,97,0.00,,---,0.00,VWS V14.00,2013-05-22 11:00:00,
2013-05-22 06:05:00,55.4,54.6,29.82,WSW,245,0.0,0.0,97,0.00,,---,0.00,VWS V14.00,2013-05-22 11:05:00,
2013-05-22 06:11:00,55.4,54.6,29.82,WSW,245,0.0,0.0,97,0.00,,---,0.00,VWS V14.00,2013-05-22 11:11:00,
2013-05-22 06:16:00,55.4,54.6,29.84,WSW,245,0.0,0.0,97,0.00,,---,0.00,VWS V14.00,2013-05-22 11:16:00,
2013-05-22 06:21:00,55.4,54.6,29.84,WSW,245,0.0,0.0,97,0.00,,---,0.00,VWS V14.00,2013-05-22 11:21:00,
2013-05-22 06:27:00,55.4,54.6,29.85,WSW,245,0.0,0.0,97,0.00,,---,0.00,VWS V14.00,2013-05-22 11:27:00,
2013-05-22 06:33:00,55.4,54.6,29.85,WSW,245,0.0,0.0,97,0.00,,---,0.00,VWS V14.00,2013-05-22 11:33:00,
2013-05-22 06:38:00,55.4,54.6,29.85,WSW,245,0.0,0.0,97,0.00,,---,0.00,VWS V14.00,2013-05-22 11:38:00,
2013-05-22 06:43:00,55.4,54.6,29.85,WSW,245,0.0,0.0,97,0.00,,---,0.00,VWS V14.00,2013-05-22 11:43:00,
2013-05-22 06:48:00,55.4,54.6,29.85,WSW,245,0.0,0.0,97,0.00,,---,0.00,VWS V14.00,2013-05-22 11:48:00,
2013-05-22 06:54:00,55.4,54.6,29.85,WSW,245,0.0,0.0,97,0.00,,---,0.00,VWS V14.00,2013-05-22 11:54:00,
2013-05-22 06:59:00,55.4,54.6,29.85,WSW,245,0.0,0.0,97,0.00,,---,0.00,VWS V14.00,2013-05-22 11:59:00,
2013-05-22 07:05:00,55.4,54.6,29.85,WSW,245,0.0,0.0,97,0.00,,---,0.00,VWS V14.00,2013-05-22 12:05:00,
2013-05-22 07:10:00,55.4,54.6,29.85,WSW,245,0.0,0.0,97,0.00,,---,0.00,VWS V14.00,2013-05-22 12:10:00,
2013-05-22 07:16:00,55.4,54.6,29.85,WSW,245,0.0,0.0,97,0.00,,---,0.00,VWS V14.00,2013-05-22 12:16:00,
2013-05-22 07:22:00,55.4,54.6,29.85,WSW,245,0.0,0.0,97,0.00,,---,0.00,VWS V14.00,2013-05-22 12:22:00,
2013-05-22 07:27:00,55.4,54.6,29.85,WSW,245,0.0,0.0,97,0.00,,---,0.00,VWS V14.00,2013-05-22 12:27:00,
2013-05-22 07:32:00,55.4,54.6,29.85,WSW,245,0.0,0.0,97,0.00,,---,0.00,VWS V14.00,2013-05-22 12:32:00,
2013-05-22 07:37:00,56.9,55.8,29.85,West,274,0.0,5.0,96,0.00,,---,0.00,VWS V14.00,2013-05-22 12:37:00,
2013-05-22 07:43:00,57.1,56.0,29.86,WSW,257,0.0,0.0,96,0.00,,---,0.00,VWS V14.00,2013-05-22 12:43:00,
2013-05-22 07:48:00,57.4,56.3,29.86,WSW,257,0.0,0.0,96,0.00,,---,0.00,VWS V14.00,2013-05-22 12:48:00,
2013-05-22 07:53:00,57.5,56.1,29.86,WSW,240,6.0,6.0,95,0.00,,---,0.00,VWS V14.00,2013-05-22 12:53:00,
2013-05-22 07:59:00,57.9,56.5,29.86,WSW,241,0.0,0.0,95,0.00,,---,0.00,VWS V14.00,2013-05-22 12:59:00,
2013-05-22 08:05:00,58.3,56.6,29.86,WSW,248,0.0,0.0,94,0.00,,---,0.00,VWS V14.00,2013-05-22 13:05:00,
2013-05-22 08:11:00,58.7,57.0,29.86,West,268,0.0,0.0,94,0.00,,---,0.00,VWS V14.00,2013-05-22 13:11:00,
2013-05-22 08:16:00,59.1,57.1,29.86,West,264,0.0,7.0,93,0.00,,---,0.00,VWS V14.00,2013-05-22 13:16:00,
2013-05-22 08:21:00,59.5,57.2,29.86,West,277,2.0,5.0,92,0.00,,---,0.00,VWS V14.00,2013-05-22 13:21:00,
2013-05-22 08:27:00,59.7,57.1,29.87,WSW,240,4.0,5.0,91,0.00,,---,0.00,VWS V14.00,2013-05-22 13:27:00,
2013-05-22 08:32:00,59.8,57.2,29.87,West,278,4.0,6.0,91,0.00,,---,0.00,VWS V14.00,2013-05-22 13:32:00,
2013-05-22 08:37:00,60.1,57.2,29.87,West,259,4.0,9.0,90,0.00,,---,0.00,VWS V14.00,2013-05-22 13:37:00,
2013-05-22 08:42:00,60.5,57.6,29.87,West,278,0.0,6.0,90,0.00,,---,0.00,VWS V14.00,2013-05-22 13:42:00,
2013-05-22 08:48:00,61.0,57.7,29.87,SW,235,5.0,5.0,89,0.00,,---,0.00,VWS V14.00,2013-05-22 13:48:00,
2013-05-22 08:54:00,61.0,57.4,29.87,West,262,0.0,0.0,88,0.00,,---,0.00,VWS V14.00,2013-05-22 13:54:00,
2013-05-22 08:59:00,61.3,57.7,29.88,West,266,2.0,5.0,88,0.00,,---,0.00,VWS V14.00,2013-05-22 13:59:00,
2013-05-22 09:04:00,61.5,57.9,29.88,WNW,285,5.0,5.0,88,0.00,,---,0.00,VWS V14.00,2013-05-22 14:04:00,
2013-05-22 09:09:00,61.9,58.0,29.88,West,274,0.0,5.0,87,0.00,,---,0.00,VWS V14.00,2013-05-22 14:09:00,
2013-05-22 09:15:00,62.4,58.5,29.88,West,280,0.0,3.0,87,0.00,,---,0.00,VWS V14.00,2013-05-22 14:15:00,
2013-05-22 09:20:00,63.0,58.8,29.88,WSW,245,3.0,7.0,86,0.00,,---,0.00,VWS V14.00,2013-05-22 14:20:00,
2013-05-22 09:25:00,63.1,58.8,29.88,WSW,252,0.0,0.0,86,0.00,,---,0.00,VWS V14.00,2013-05-22 14:25:00,
2013-05-22 09:30:00,63.4,58.5,29.89,West,260,0.0,7.0,84,0.00,,---,0.00,VWS V14.00,2013-05-22 14:30:00,
2013-05-22 09:35:00,63.5,58.6,29.89,West,266,4.0,10.0,84,0.00,,---,0.00,VWS V14.00,2013-05-22 14:35:00,
2013-05-22 09:40:00,63.7,58.5,29.89,WNW,293,0.0,0.0,83,0.00,,---,0.00,VWS V14.00,2013-05-22 14:40:00,
2013-05-22 09:45:00,64.3,59.0,29.90,WNW,283,0.0,0.0,83,0.00,,---,0.00,VWS V14.00,2013-05-22 14:45:00,
2013-05-22 09:50:00,65.0,59.7,29.90,West,264,0.0,0.0,83,0.00,,---,0.00,VWS V14.00,2013-05-22 14:50:00,
2013-05-22 09:55:00,65.4,58.4,29.90,West,265,0.0,4.0,78,0.00,,---,0.00,VWS V14.00,2013-05-22 14:55:00,
2013-05-22 10:00:00,66.0,59.0,29.89,West,265,0.0,0.0,78,0.00,,---,0.00,VWS V14.00,2013-05-22 15:00:00,
2013-05-22 10:05:00,66.6,58.4,29.89,NE,49,0.0,2.0,75,0.00,,---,0.00,VWS V14.00,2013-05-22 15:05:00,
2013-05-22 10:10:00,67.1,58.2,29.89,NNE,32,0.0,5.0,73,0.00,,---,0.00,VWS V14.00,2013-05-22 15:10:00,
2013-05-22 10:15:00,67.6,58.3,29.90,NNE,31,5.0,6.0,72,0.00,,---,0.00,VWS V14.00,2013-05-22 15:15:00,
2013-05-22 10:20:00,68.0,58.7,29.90,NE,35,0.0,0.0,72,0.00,,---,0.00,VWS V14.00,2013-05-22 15:20:00,
2013-05-22 10:25:00,68.0,58.3,29.90,West,278,0.0,4.0,71,0.00,,---,0.00,VWS V14.00,2013-05-22 15:25:00,
2013-05-22 10:30:00,68.3,57.8,29.90,ENE,67,0.0,1.0,69,0.00,,---,0.00,VWS V14.00,2013-05-22 15:30:00,
2013-05-22 10:36:00,68.7,58.1,29.90,NE,42,0.0,0.0,69,0.00,,---,0.00,VWS V14.00,2013-05-22 15:36:00,
2013-05-22 10:42:00,69.2,57.4,29.90,NE,39,0.0,0.0,66,0.00,,---,0.00,VWS V14.00,2013-05-22 15:42:00,
2013-05-22 10:47:00,69.7,58.3,29.90,WNW,299,0.0,0.0,67,0.00,,---,0.00,VWS V14.00,2013-05-22 15:47:00,
2013-05-22 10:52:00,69.8,58.4,29.90,WNW,290,0.0,0.0,67,0.00,,---,0.00,VWS V14.00,2013-05-22 15:52:00,
2013-05-22 10:58:00,70.4,58.1,29.90,NE,46,3.0,4.0,65,0.00,,---,0.00,VWS V14.00,2013-05-22 15:58:00,
2013-05-22 11:04:00,70.2,57.5,29.90,NE,53,0.0,4.0,64,0.00,,---,0.00,VWS V14.00,2013-05-22 16:04:00,
2013-05-22 11:09:00,70.4,56.8,29.90,West,273,0.0,0.0,62,0.00,,---,0.00,VWS V14.00,2013-05-22 16:09:00,
2013-05-22 11:14:00,70.9,55.9,29.90,NE,49,0.0,0.0,59,0.00,,---,0.00,VWS V14.00,2013-05-22 16:14:00,
2013-05-22 11:19:00,71.0,55.5,29.90,WNW,299,7.0,10.0,58,0.00,,---,0.00,VWS V14.00,2013-05-22 16:19:00,
2013-05-22 11:25:00,70.6,55.6,29.90,West,279,0.0,0.0,59,0.00,,---,0.00,VWS V14.00,2013-05-22 16:25:00,
2013-05-22 11:31:00,71.3,54.8,29.90,NNE,31,0.0,0.0,56,0.00,,---,0.00,VWS V14.00,2013-05-22 16:31:00,
2013-05-22 11:36:00,71.4,55.4,29.90,West,274,2.0,4.0,57,0.00,,---,0.00,VWS V14.00,2013-05-22 16:36:00,
2013-05-22 11:42:00,71.3,55.3,29.90,NNE,15,0.0,0.0,57,0.00,,---,0.00,VWS V14.00,2013-05-22 16:42:00,
2013-05-22 11:47:00,71.9,55.9,29.90,ENE,64,0.0,0.0,57,0.00,,---,0.00,VWS V14.00,2013-05-22 16:47:00,
2013-05-22 11:52:00,72.4,56.3,29.90,West,281,5.0,5.0,57,0.00,,---,0.00,VWS V14.00,2013-05-22 16:52:00,
2013-05-22 11:57:00,72.0,56.0,29.90,ENE,62,1.0,3.0,57,0.00,,---,0.00,VWS V14.00,2013-05-22 16:57:00,
2013-05-22 12:02:00,72.3,55.7,29.90,NE,39,0.0,0.0,56,0.00,,---,0.00,VWS V14.00,2013-05-22 17:02:00,
2013-05-22 12:08:00,72.5,55.9,29.90,West,276,0.0,0.0,56,0.00,,---,0.00,VWS V14.00,2013-05-22 17:08:00,
2013-05-22 12:13:00,72.8,55.7,29.90,NNE,25,0.0,0.0,55,0.00,,---,0.00,VWS V14.00,2013-05-22 17:13:00,
2013-05-22 12:19:00,73.3,56.7,29.90,NE,38,0.0,0.0,56,0.00,,---,0.00,VWS V14.00,2013-05-22 17:19:00,
2013-05-22 12:24:00,73.5,55.9,29.90,WNW,283,0.0,5.0,54,0.00,,---,0.00,VWS V14.00,2013-05-22 17:24:00,
2013-05-22 12:29:00,72.8,56.7,29.91,WNW,285,0.0,0.0,57,0.00,,---,0.00,VWS V14.00,2013-05-22 17:29:00,
2013-05-22 12:34:00,72.8,55.7,29.91,NW,305,0.0,0.0,55,0.00,,---,0.00,VWS V14.00,2013-05-22 17:34:00,
2013-05-22 12:39:00,73.1,56.5,29.91,West,268,0.0,7.0,56,0.00,,---,0.00,VWS V14.00,2013-05-22 17:39:00,
2013-05-22 12:44:00,73.7,56.5,29.90,SW,235,0.0,0.0,55,0.00,,---,0.00,VWS V14.00,2013-05-22 17:44:00,
2013-05-22 12:50:00,74.8,57.6,29.90,NW,326,0.0,0.0,55,0.00,,---,0.00,VWS V14.00,2013-05-22 17:50:00,
2013-05-22 12:55:00,74.2,56.0,29.90,WNW,296,0.0,3.0,53,0.00,,---,0.00,VWS V14.00,2013-05-22 17:55:00,
2013-05-22 13:00:00,74.4,56.2,29.90,West,272,5.0,5.0,53,0.00,,---,0.00,VWS V14.00,2013-05-22 18:00:00,
2013-05-22 13:05:00,74.0,55.3,29.90,WSW,252,6.0,11.0,52,0.00,,---,0.00,VWS V14.00,2013-05-22 18:05:00,
2013-05-22 13:10:00,73.6,56.0,29.90,WNW,287,0.0,0.0,54,0.00,,---,0.00,VWS V14.00,2013-05-22 18:10:00,
2013-05-22 13:15:00,73.5,54.8,29.90,West,278,0.0,0.0,52,0.00,,---,0.00,VWS V14.00,2013-05-22 18:15:00,
2013-05-22 13:21:00,74.7,56.5,29.90,West,262,0.0,4.0,53,0.00,,---,0.00,VWS V14.00,2013-05-22 18:21:00,
2013-05-22 13:26:00,74.8,56.0,29.90,West,280,0.0,1.0,52,0.00,,---,0.00,VWS V14.00,2013-05-22 18:26:00,
2013-05-22 13:31:00,74.3,55.6,29.90,West,278,0.0,6.0,52,0.00,,---,0.00,VWS V14.00,2013-05-22 18:31:00,
2013-05-22 13:36:00,74.6,55.8,29.90,WSW,250,0.0,7.0,52,0.00,,---,0.00,VWS V14.00,2013-05-22 18:36:00,
2013-05-22 13:41:00,74.6,55.8,29.90,WSW,256,8.0,12.0,52,0.00,,---,0.00,VWS V14.00,2013-05-22 18:41:00,
2013-05-22 13:46:00,74.5,55.7,29.91,West,266,0.0,6.0,52,0.00,,---,0.00,VWS V14.00,2013-05-22 18:46:00,
2013-05-22 13:52:00,76.2,55.7,29.91,West,281,8.0,8.0,49,0.00,,---,0.00,VWS V14.00,2013-05-22 18:52:00,
2013-05-22 13:57:00,75.5,55.0,29.91,South,178,0.0,10.0,49,0.00,,---,0.00,VWS V14.00,2013-05-22 18:57:00,
2013-05-22 14:02:00,74.8,55.5,29.91,West,269,0.0,9.0,51,0.00,,---,0.00,VWS V14.00,2013-05-22 19:02:00,
2013-05-22 14:07:00,74.6,55.3,29.91,WSW,251,0.0,3.0,51,0.00,,---,0.00,VWS V14.00,2013-05-22 19:07:00,
2013-05-22 14:13:00,75.6,56.2,29.90,West,276,3.0,5.0,51,0.00,,---,0.00,VWS V14.00,2013-05-22 19:13:00,
2013-05-22 14:19:00,78.4,57.7,29.90,West,277,0.0,0.0,49,0.00,,---,0.00,VWS V14.00,2013-05-22 19:19:00,
2013-05-22 14:24:00,77.1,55.9,29.90,WNW,282,0.0,5.0,48,0.00,,---,0.00,VWS V14.00,2013-05-22 19:24:00,
2013-05-22 14:30:00,77.6,56.4,29.90,WNW,303,1.0,6.0,48,0.00,,---,0.00,VWS V14.00,2013-05-22 19:30:00,
2013-05-22 14:36:00,77.0,56.4,29.90,WNW,301,0.0,6.0,49,0.00,,---,0.00,VWS V14.00,2013-05-22 19:36:00,
2013-05-22 14:41:00,76.5,55.9,29.90,WSW,253,0.0,6.0,49,0.00,,---,0.00,VWS V14.00,2013-05-22 19:41:00,
2013-05-22 14:46:00,77.9,57.2,29.90,NNE,20,0.0,0.0,49,0.00,,---,0.00,VWS V14.00,2013-05-22 19:46:00,
2013-05-22 14:52:00,76.3,56.9,29.90,West,277,0.0,2.0,51,0.00,,---,0.00,VWS V14.00,2013-05-22 19:52:00,
2013-05-22 14:58:00,76.1,55.6,29.90,West,277,0.0,0.0,49,0.00,,---,0.00,VWS V14.00,2013-05-22 19:58:00,
2013-05-22 15:03:00,77.8,57.1,29.90,SE,124,0.0,0.0,49,0.00,,---,0.00,VWS V14.00,2013-05-22 20:03:00,
2013-05-22 15:08:00,78.9,58.1,29.90,West,276,0.0,0.0,49,0.00,,---,0.00,VWS V14.00,2013-05-22 20:08:00,
2013-05-22 15:14:00,77.8,57.1,29.89,West,278,0.0,0.0,49,0.00,,---,0.00,VWS V14.00,2013-05-22 20:14:00,
2013-05-22 15:20:00,78.8,56.3,29.89,West,281,4.0,6.0,46,0.00,,---,0.00,VWS V14.00,2013-05-22 20:20:00,
2013-05-22 15:25:00,77.7,57.0,29.89,WSW,255,0.0,0.0,49,0.00,,---,0.00,VWS V14.00,2013-05-22 20:25:00,
2013-05-22 15:30:00,78.1,56.8,29.89,WSW,251,0.0,0.0,48,0.00,,---,0.00,VWS V14.00,2013-05-22 20:30:00,
2013-05-22 15:36:00,79.1,56.6,29.89,West,276,0.0,0.0,46,0.00,,---,0.00,VWS V14.00,2013-05-22 20:36:00,
2013-05-22 15:41:00,78.3,55.8,29.89,SSE,156,0.0,0.0,46,0.00,,---,0.00,VWS V14.00,2013-05-22 20:41:00,
2013-05-22 15:46:00,79.8,56.0,29.88,West,272,0.0,5.0,44,0.00,,---,0.00,VWS V14.00,2013-05-22 20:46:00,
2013-05-22 15:51:00,79.1,56.0,29.88,WSW,250,2.0,6.0,45,0.00,,---,0.00,VWS V14.00,2013-05-22 20:51:00,
2013-05-22 15:56:00,77.9,55.5,29.88,WSW,243,5.0,5.0,46,0.00,,---,0.00,VWS V14.00,2013-05-22 20:56:00,
2013-05-22 16:01:00,78.5,57.2,29.88,South,174,0.0,0.0,48,0.00,,---,0.00,VWS V14.00,2013-05-22 21:01:00,
2013-05-22 16:06:00,79.9,57.9,29.88,SW,234,0.0,0.0,47,0.00,,---,0.00,VWS V14.00,2013-05-22 21:06:00,
2013-05-22 16:12:00,79.6,57.6,29.88,SW,230,0.0,6.0,47,0.00,,---,0.00,VWS V14.00,2013-05-22 21:12:00,
2013-05-22 16:18:00,78.7,56.2,29.88,West,281,0.0,4.0,46,0.00,,---,0.00,VWS V14.00,2013-05-22 21:18:00,
2013-05-22 16:24:00,79.2,57.2,29.88,SSW,205,0.0,0.0,47,0.00,,---,0.00,VWS V14.00,2013-05-22 21:24:00,
2013-05-22 16:29:00,79.7,56.5,29.88,West,266,3.0,9.0,45,0.00,,---,0.00,VWS V14.00,2013-05-22 21:29:00,
2013-05-22 16:34:00,80.0,56.2,29.88,West,276,2.0,6.0,44,0.00,,---,0.00,VWS V14.00,2013-05-22 21:34:00,
2013-05-22 16:39:00,79.1,56.0,29.88,South,186,0.0,2.0,45,0.00,,---,0.00,VWS V14.00,2013-05-22 21:39:00,
2013-05-22 16:44:00,78.8,55.7,29.88,WSW,253,1.0,5.0,45,0.00,,---,0.00,VWS V14.00,2013-05-22 21:44:00,
2013-05-22 16:49:00,78.6,54.9,29.88,West,263,0.0,6.0,44,0.00,,---,0.00,VWS V14.00,2013-05-22 21:49:00,
2013-05-22 16:55:00,79.3,56.1,29.88,West,271,0.0,2.0,45,0.00,,---,0.00,VWS V14.00,2013-05-22 21:55:00,
2013-05-22 17:00:00,79.6,55.2,29.88,West,259,0.0,1.0,43,0.00,,---,0.00,VWS V14.00,2013-05-22 22:00:00,
2013-05-22 17:06:00,79.8,56.0,29.88,WNW,288,0.0,8.0,44,0.00,,---,0.00,VWS V14.00,2013-05-22 22:06:00,
2013-05-22 17:11:00,79.1,56.0,29.88,West,270,0.0,2.0,45,0.00,,---,0.00,VWS V14.00,2013-05-22 22:11:00,
2013-05-22 17:16:00,79.4,56.2,29.88,WSW,252,0.0,0.0,45,0.00,,---,0.00,VWS V14.00,2013-05-22 22:16:00,
2013-05-22 17:21:00,80.2,56.3,29.88,West,264,0.0,1.0,44,0.00,,---,0.00,VWS V14.00,2013-05-22 22:21:00,
2013-05-22 17:26:00,80.4,55.9,29.88,WSW,243,0.0,7.0,43,0.00,,---,0.00,VWS V14.00,2013-05-22 22:26:00,
2013-05-22 17:31:00,79.6,55.2,29.87,WSW,257,0.0,2.0,43,0.00,,---,0.00,VWS V14.00,2013-05-22 22:31:00,
2013-05-22 17:36:00,79.9,56.1,29.87,WSW,258,0.0,0.0,44,0.00,,---,0.00,VWS V14.00,2013-05-22 22:36:00,
2013-05-22 17:41:00,80.2,55.7,29.87,West,273,0.0,5.0,43,0.00,,---,0.00,VWS V14.00,2013-05-22 22:41:00,
2013-05-22 17:46:00,79.6,55.2,29.87,West,271,0.0,0.0,43,0.00,,---,0.00,VWS V14.00,2013-05-22 22:46:00,
2013-05-22 17:51:00,79.9,57.3,29.87,WNW,288,0.0,0.0,46,0.00,,---,0.00,VWS V14.00,2013-05-22 22:51:00,
2013-05-22 17:57:00,80.2,56.3,29.87,West,280,0.0,2.0,44,0.00,,---,0.00,VWS V14.00,2013-05-22 22:57:00,
2013-05-22 18:02:00,80.4,56.5,29.87,West,271,0.0,0.0,44,0.00,,---,0.00,VWS V14.00,2013-05-22 23:02:00,
2013-05-22 18:08:00,80.5,56.0,29.87,West,269,0.0,0.0,43,0.00,,---,0.00,VWS V14.00,2013-05-22 23:08:00,
2013-05-22 18:13:00,80.1,55.6,29.87,SSW,207,0.0,1.0,43,0.00,,---,0.00,VWS V14.00,2013-05-22 23:13:00,
2013-05-22 18:18:00,79.9,56.1,29.87,WSW,258,0.0,1.0,44,0.00,,---,0.00,VWS V14.00,2013-05-22 23:18:00,
2013-05-22 18:23:00,80.0,56.2,29.87,West,266,3.0,6.0,44,0.00,,---,0.00,VWS V14.00,2013-05-22 23:23:00,
2013-05-22 18:28:00,79.7,55.2,29.87,West,271,9.0,9.0,43,0.00,,---,0.00,VWS V14.00,2013-05-22 23:28:00,
2013-05-22 18:34:00,79.9,54.8,29.87,West,276,0.0,2.0,42,0.00,,---,0.00,VWS V14.00,2013-05-22 23:34:00,
2013-05-22 18:39:00,79.8,56.0,29.87,West,277,0.0,0.0,44,0.00,,---,0.00,VWS V14.00,2013-05-22 23:39:00,
2013-05-22 18:44:00,79.7,55.9,29.88,West,275,0.0,0.0,44,0.00,,---,0.00,VWS V14.00,2013-05-22 23:44:00,
2013-05-22 18:50:00,79.5,56.3,29.88,West,265,0.0,0.0,45,0.00,,---,0.00,VWS V14.00,2013-05-22 23:50:00,
2013-05-22 18:55:00,79.6,57.0,29.88,WNW,283,0.0,0.0,46,0.00,,---,0.00,VWS V14.00,2013-05-22 23:55:00,
2013-05-22 19:01:00,79.6,55.8,29.88,West,278,0.0,0.0,44,0.00,,---,0.00,VWS V14.00,2013-05-23 00:01:00,
2013-05-22 19:06:00,79.3,56.1,29.88,West,278,0.0,2.0,45,0.00,,---,0.00,VWS V14.00,2013-05-23 00:06:00,
2013-05-22 19:12:00,79.4,56.2,29.88,West,278,0.0,0.0,45,0.00,,---,0.00,VWS V14.00,2013-05-23 00:12:00,
2013-05-22 19:17:00,79.6,56.4,29.88,West,278,0.0,1.0,45,0.00,,---,0.00,VWS V14.00,2013-05-23 00:17:00,
2013-05-22 19:22:00,79.8,56.6,29.88,West,278,0.0,0.0,45,0.00,,---,0.00,VWS V14.00,2013-05-23 00:22:00,
2013-05-22 19:28:00,79.5,55.7,29.88,West,278,0.0,4.0,44,0.00,,---,0.00,VWS V14.00,2013-05-23 00:28:00,
2013-05-22 19:33:00,78.9,56.4,29.88,West,278,0.0,0.0,46,0.00,,---,0.00,VWS V14.00,2013-05-23 00:33:00,
2013-05-22 19:39:00,78.6,56.1,29.88,West,277,0.0,0.0,46,0.00,,---,0.00,VWS V14.00,2013-05-23 00:39:00,
2013-05-22 19:44:00,78.4,57.1,29.89,West,277,0.0,0.0,48,0.00,,---,0.00,VWS V14.00,2013-05-23 00:44:00,
2013-05-22 19:50:00,78.5,56.6,29.89,West,277,0.0,0.0,47,0.00,,---,0.00,VWS V14.00,2013-05-23 00:50:00,
2013-05-22 19:56:00,78.3,57.6,29.89,West,277,0.0,0.0,49,0.00,,---,0.00,VWS V14.00,2013-05-23 00:56:00,
2013-05-22 20:01:00,78.0,56.7,29.90,West,277,0.0,0.0,48,0.00,,---,0.00,VWS V14.00,2013-05-23 01:01:00,
2013-05-22 20:06:00,77.6,57.5,29.90,West,277,0.0,0.0,50,0.00,,---,0.00,VWS V14.00,2013-05-23 01:06:00,
2013-05-22 20:12:00,77.2,58.2,29.90,West,277,0.0,0.0,52,0.00,,---,0.00,VWS V14.00,2013-05-23 01:12:00,
2013-05-22 20:17:00,76.8,57.9,29.90,West,277,0.0,0.0,52,0.00,,---,0.00,VWS V14.00,2013-05-23 01:17:00,
2013-05-22 20:22:00,76.6,58.7,29.90,West,277,0.0,0.0,54,0.00,,---,0.00,VWS V14.00,2013-05-23 01:22:00,
2013-05-22 20:28:00,76.3,59.0,29.91,West,277,0.0,0.0,55,0.00,,---,0.00,VWS V14.00,2013-05-23 01:28:00,
2013-05-22 20:33:00,76.0,58.7,29.91,West,277,0.0,0.0,55,0.00,,---,0.00,VWS V14.00,2013-05-23 01:33:00,
2013-05-22 20:38:00,75.7,58.9,29.91,West,277,0.0,0.0,56,0.00,,---,0.00,VWS V14.00,2013-05-23 01:38:00,
2013-05-22 20:43:00,75.3,58.5,29.91,West,277,0.0,0.0,56,0.00,,---,0.00,VWS V14.00,2013-05-23 01:43:00,
2013-05-22 20:49:00,74.8,59.0,29.91,West,277,0.0,0.0,58,0.00,,---,0.00,VWS V14.00,2013-05-23 01:49:00,
2013-05-22 20:54:00,74.3,59.1,29.91,West,277,0.0,0.0,59,0.00,,---,0.00,VWS V14.00,2013-05-23 01:54:00,
2013-05-22 20:59:00,73.7,59.0,29.91,West,277,0.0,0.0,60,0.00,,---,0.00,VWS V14.00,2013-05-23 01:59:00,
2013-05-22 21:04:00,73.0,58.8,29.91,West,277,0.0,0.0,61,0.00,,---,0.00,VWS V14.00,2013-05-23 02:04:00,
2013-05-22 21:09:00,72.4,58.7,29.91,West,277,0.0,0.0,62,0.00,,---,0.00,VWS V14.00,2013-05-23 02:09:00,
2013-05-22 21:15:00,71.8,59.0,29.91,West,277,0.0,0.0,64,0.00,,---,0.00,VWS V14.00,2013-05-23 02:15:00,
2013-05-22 21:20:00,71.3,58.9,29.91,West,277,0.0,0.0,65,0.00,,---,0.00,VWS V14.00,2013-05-23 02:20:00,
2013-05-22 21:25:00,70.8,58.9,29.91,West,277,0.0,0.0,66,0.00,,---,0.00,VWS V14.00,2013-05-23 02:25:00,
2013-05-22 21:30:00,70.5,59.0,29.92,West,277,0.0,0.0,67,0.00,,---,0.00,VWS V14.00,2013-05-23 02:30:00,
2013-05-22 21:36:00,70.3,59.2,29.92,West,277,0.0,0.0,68,0.00,,---,0.00,VWS V14.00,2013-05-23 02:36:00,
2013-05-22 21:41:00,70.2,59.6,29.92,West,277,0.0,0.0,69,0.00,,---,0.00,VWS V14.00,2013-05-23 02:41:00,
2013-05-22 21:47:00,70.1,59.5,29.92,West,277,0.0,0.0,69,0.00,,---,0.00,VWS V14.00,2013-05-23 02:47:00,
2013-05-22 21:52:00,69.8,59.6,29.92,West,277,0.0,0.0,70,0.00,,---,0.00,VWS V14.00,2013-05-23 02:52:00,
2013-05-22 21:57:00,69.4,59.2,29.92,West,277,0.0,0.0,70,0.00,,---,0.00,VWS V14.00,2013-05-23 02:57:00,
2013-05-22 22:02:00,69.1,59.3,29.92,West,277,0.0,0.0,71,0.00,,---,0.00,VWS V14.00,2013-05-23 03:02:00,
2013-05-22 22:07:00,68.6,59.2,29.92,West,277,0.0,0.0,72,0.00,,---,0.00,VWS V14.00,2013-05-23 03:07:00,
2013-05-22 22:13:00,68.3,58.9,29.93,West,277,0.0,0.0,72,0.00,,---,0.00,VWS V14.00,2013-05-23 03:13:00,
2013-05-22 22:18:00,68.1,59.1,29.93,West,277,0.0,0.0,73,0.00,,---,0.00,VWS V14.00,2013-05-23 03:18:00,
2013-05-22 22:23:00,67.9,58.9,29.93,West,277,0.0,0.0,73,0.00,,---,0.00,VWS V14.00,2013-05-23 03:23:00,
2013-05-22 22:28:00,67.8,59.2,29.93,West,277,0.0,0.0,74,0.00,,---,0.00,VWS V14.00,2013-05-23 03:28:00,
2013-05-22 22:33:00,67.7,59.1,29.93,West,277,0.0,0.0,74,0.00,,---,0.00,VWS V14.00,2013-05-23 03:33:00,
2013-05-22 22:39:00,67.6,59.0,29.93,West,277,0.0,0.0,74,0.00,,---,0.00,VWS V14.00,2013-05-23 03:39:00,
2013-05-22 22:45:00,67.3,59.5,29.93,West,277,0.0,0.0,76,0.00,,---,0.00,VWS V14.00,2013-05-23 03:45:00,
2013-05-22 22:50:00,67.3,59.8,29.93,West,277,0.0,0.0,77,0.00,,---,0.00,VWS V14.00,2013-05-23 03:50:00,
2013-05-22 22:55:00,67.6,59.8,29.93,West,277,0.0,0.0,76,0.00,,---,0.00,VWS V14.00,2013-05-23 03:55:00,
2013-05-22 23:00:00,67.7,59.5,29.94,West,277,0.0,0.0,75,0.00,,---,0.00,VWS V14.00,2013-05-23 04:00:00,
2013-05-22 23:01:00,67.7,59.5,29.94,West,277,0.0,0.0,75,0.00,,---,0.00,VWS V14.00,2013-05-23 04:01:00,
2013-05-22 23:02:00,67.7,59.5,29.94,West,277,0.0,0.0,75,0.00,,---,0.00,VWS V14.00,2013-05-23 04:02:00,
2013-05-22 23:03:00,67.7,59.5,29.94,West,277,0.0,0.0,75,0.00,,---,0.00,VWS V14.00,2013-05-23 04:03:00,
2013-05-22 23:05:00,67.6,59.4,29.94,West,277,0.0,0.0,75,0.00,,---,0.00,VWS V14.00,2013-05-23 04:05:00,
2013-05-22 23:11:00,67.2,59.4,29.94,West,277,0.0,0.0,76,0.00,,---,0.00,VWS V14.00,2013-05-23 04:11:00,
2013-05-22 23:16:00,66.9,59.1,29.93,West,277,0.0,0.0,76,0.00,,---,0.00,VWS V14.00,2013-05-23 04:16:00,
2013-05-22 23:22:00,66.7,59.3,29.93,West,277,0.0,0.0,77,0.00,,---,0.00,VWS V14.00,2013-05-23 04:22:00,
2013-05-22 23:28:00,66.5,59.4,29.93,West,277,0.0,0.0,78,0.00,,---,0.00,VWS V14.00,2013-05-23 04:28:00,
2013-05-22 23:33:00,66.2,59.5,29.93,West,277,0.0,0.0,79,0.00,,---,0.00,VWS V14.00,2013-05-23 04:33:00,
2013-05-22 23:38:00,66.0,59.7,29.93,West,277,0.0,0.0,80,0.00,,---,0.00,VWS V14.00,2013-05-23 04:38:00,
2013-05-22 23:43:00,65.9,59.6,29.93,West,277,0.0,0.0,80,0.00,,---,0.00,VWS V14.00,2013-05-23 04:43:00,
2013-05-22 23:48:00,66.0,60.0,29.93,West,277,0.0,0.0,81,0.00,,---,0.00,VWS V14.00,2013-05-23 04:48:00,
2013-05-22 23:53:00,66.4,60.0,29.93,West,277,0.0,0.0,80,0.00,,---,0.00,VWS V14.00,2013-05-23 04:53:00,
2013-05-22 23:59:00,66.7,60.0,29.93,West,277,0.0,0.0,79,0.00,,---,0.00,VWS V14.00,2013-05-23 04:59:00,